Miscellaneous Local Product
Issued by NWS North Platte, NE

Home | Current Version | Previous Version | Text Only | Print | Product List | Glossary On
Versions: 1 2 3 4 5 6 7 8 9 10 11 12 13 14 15 16 17 18 19 20 21 22 23 24 25 26 27 28 29 30 31 32 33 34 35 36 37 38 39 40 41 42 43 44 45 46 47 48 49 50
000
AXUS43 KLBF 232110
MISLBF


WESTERN AND NORTH CENTRAL NEBRASKA HOURLY WEATHER ROUNDUP
NATIONAL WEATHER SERVICE NORTH PLATTE NE
400 PM CDT WED APR 23 2014

***STATIONS NOT REPORTING VARIABLES SUCH AS SKY/WEATHER OR
PRESSURE ARE PROVIDED BY THE NEBRASKA DEPARTMENT OF
ROADS...RAWS...AND APRS NETWORKS...AND ARE NOT UNDER
NATIONAL WEATHER SERVICE QUALITY CONTROL***

...OBSERVATIONS IN AND NEAR THE EASTERN PANHANDLE OF NEBRASKA...

CITY           SKY/WX    TMP DP  RH WIND       PRES   REMARKS
PINE RIDGE     SUNNY     69  25  19 W24G33    29.60S
CHADRON        MOSUNNY   69  25  19 W26G35    29.62S
ALLIANCE       MOSUNNY   68  20  16 NW26G39   29.63S
SIDNEY         MOSUNNY   70  27  20 N28G38    29.65S
WHITECLAY        N/A     66  27  22 W22         N/A
CRESCENT LAKE    N/A     70  22  16 NW16G26     N/A
LISCO            N/A     73   5   7 W32         N/A
BIG SPRINGS      N/A     73  33  23 NW13        N/A
LEWELLEN         N/A     77  20  12 NW22        N/A
$$

...OBSERVATIONS IN SOUTHWEST NEBRASKA AND FAR NORTHEAST COLORADO...

CITY           SKY/WX    TMP DP  RH WIND       PRES   REMARKS
WRAY           FAIR      78  33  19 N16G26    29.59F
HOLYOKE        FAIR      75  32  20 N23       29.61S
IMPERIAL       SUNNY     79  33  19 N16G25    29.58R
OGALLALA       SUNNY     74  22  14 NW25G35   29.59S
NORTH PLATTE   MOSUNNY   79  41  25 N15G22    29.55S
MCCOOK         CLOUDY    79  44  28 N9G18     29.54F
LEXINGTON      CLOUDY    80  46  29 NW14G21   29.52S
PAXTON           N/A     77  37  24 NW12        N/A
SUTHERLAND       N/A     81  33  17 SE9         N/A
GOTHENBURG       N/A     77  47  34 N6G13       N/A
CALLAWAY         N/A     74  46  36 NW12        N/A
$$

...OBSERVATIONS IN NORTH CENTRAL NEBRASKA...

CITY           SKY/WX    TMP DP  RH WIND       PRES   REMARKS
VALENTINE      MOSUNNY   74  29  19 NW20G28   29.54R
THEDFORD       MOSUNNY   77  24  14 NW20G28   29.57S
AINSWORTH      MOSUNNY   78  39  24 NW17      29.53S
O`NEILL        MOSUNNY   79  41  25 S15G28    29.51F
ORD            PTSUNNY   79  50  36 S17G28    29.51S
BROKEN BOW     CLOUDY    77  42  28 NW13      29.55R
BROWNLEE         N/A     79  32  18 NW20        N/A
SPRINGVIEW       N/A     78  46  31 W12G22      N/A
DUNNING          N/A     77  27  16 NE14        N/A
BREWSTER         N/A     81  32  17 S16         N/A
ROSE             N/A     80  39  22 SW16        N/A
NEWPORT          N/A     78  44  29 W10         N/A
COMSTOCK         N/A     85  49  27 W12         N/A
CHAMBERS         N/A     77  49  37 S5G14       N/A
EWING            N/A     75  47  37 S10G20      N/A
$$

...SOME WEATHER OBSERVATIONS FROM AROUND THE REGION...

CITY           SKY/WX    TMP DP  RH WIND       PRES   REMARKS
DENVER         CLOUDY    69  32  25 NE12      29.60S
LARAMIE        CLOUDY    50  20  30 W21G31    29.78R
CHEYENNE       CLOUDY    54  24  31 NW26G36   29.69R
SCOTTSBLUFF    MOSUNNY   65  20  17 W26G44    29.66S
RAPID CITY     PTSUNNY   54  39  57 N35G48    29.61R
PIERRE         CLOUDY    73  44  35 S7        29.48F
WINNER         FAIR      77  43  29 NW14G20   29.51S
SIOUX FALLS    PTSUNNY   61  40  45 SE24G38   29.66F
OMAHA          LGT RAIN  54  44  69 SE23      29.72S
GRAND ISLAND   SUNNY     80  51  36 S28G39    29.54F
KANSAS CITY    PTSUNNY   72  41  32 SE21      29.82F
WICHITA        PTSUNNY   87  45  23 S26G35    29.69F
HAYS           CLOUDY   N/A N/A N/A S36G43    29.55F
LIBERAL        CLOUDY    82  52  34 S32G40    29.59F
GOODLAND       SUNNY     80  40  23 NE22G32   29.54S
$$



USA.gov is the U.S. government's official web portal to all federal, state and local government web resources and services.